Time,TemperatureF,DewpointF,PressureIn,WindDirection,WindDirectionDegrees,WindSpeedMPH,WindSpeedGustMPH,Humidity,HourlyPrecipIn,Conditions,Clouds,dailyrainin,SolarRadiationWatts/m^2,SoftwareType,DateUTC
2013-05-11 00:02:00,71.4,46.6,30.01,SW,225,5.0,16.0,41,0.00,,,0.00,0.0,meteohub,2013-05-11 07:02:00,
2013-05-11 00:07:00,71.2,46.4,30.01,SW,227,7.0,16.0,41,0.00,,,0.00,0.0,meteohub,2013-05-11 07:07:00,
2013-05-11 00:12:00,71.2,46.9,30.01,SW,232,6.0,16.0,42,0.00,,,0.00,0.0,meteohub,2013-05-11 07:12:00,
2013-05-11 00:17:00,71.2,46.9,30.01,SW,236,2.0,14.0,42,0.00,,,0.00,0.0,meteohub,2013-05-11 07:17:00,
2013-05-11 00:22:00,71.1,46.2,30.01,WSW,240,6.0,14.0,41,0.00,,,0.00,0.0,meteohub,2013-05-11 07:22:00,
2013-05-11 00:27:00,71.1,46.2,30.01,SW,235,1.0,14.0,41,0.00,,,0.00,0.0,meteohub,2013-05-11 07:27:00,
2013-05-11 00:32:00,71.1,46.2,30.01,SW,232,7.0,14.0,41,0.00,,,0.00,0.0,meteohub,2013-05-11 07:32:00,
2013-05-11 00:37:00,71.1,46.2,30.01,WSW,244,6.0,11.0,41,0.00,,,0.00,0.0,meteohub,2013-05-11 07:37:00,
2013-05-11 00:42:00,71.1,46.2,30.01,SW,231,6.0,11.0,41,0.00,,,0.00,0.0,meteohub,2013-05-11 07:42:00,
2013-05-11 00:47:00,70.9,46.6,30.02,SW,223,4.0,11.0,42,0.00,,,0.00,0.0,meteohub,2013-05-11 07:47:00,
2013-05-11 00:52:00,70.9,46.6,30.01,SW,233,7.0,11.0,42,0.00,,,0.00,0.0,meteohub,2013-05-11 07:52:00,
2013-05-11 00:57:00,70.9,46.6,30.01,SW,220,6.0,11.0,42,0.00,,,0.00,0.0,meteohub,2013-05-11 07:57:00,
2013-05-11 01:02:00,70.9,47.3,30.01,SW,233,1.0,13.0,43,0.00,,,0.00,0.0,meteohub,2013-05-11 08:02:00,
2013-05-11 01:07:00,70.9,47.3,30.01,SW,236,6.0,13.0,43,0.00,,,0.00,0.0,meteohub,2013-05-11 08:07:00,
2013-05-11 01:12:00,70.9,47.3,30.01,SW,236,4.0,13.0,43,0.00,,,0.00,0.0,meteohub,2013-05-11 08:12:00,
2013-05-11 01:17:00,70.7,47.1,30.01,WSW,240,0.0,13.0,43,0.00,,,0.00,0.0,meteohub,2013-05-11 08:17:00,
2013-05-11 01:22:00,70.5,47.5,30.01,WSW,239,4.0,13.0,44,0.00,,,0.00,0.0,meteohub,2013-05-11 08:22:00,
2013-05-11 01:27:00,70.3,47.5,30.01,SW,229,2.0,13.0,44,0.00,,,0.00,0.0,meteohub,2013-05-11 08:27:00,
2013-05-11 01:32:00,70.3,47.5,30.01,WSW,240,5.0,10.0,44,0.00,,,0.00,0.0,meteohub,2013-05-11 08:32:00,
2013-05-11 01:37:00,70.3,47.5,30.01,SW,236,6.0,10.0,44,0.00,,,0.00,0.0,meteohub,2013-05-11 08:37:00,
2013-05-11 01:42:00,70.3,47.5,30.01,SW,235,1.0,10.0,44,0.00,,,0.00,0.0,meteohub,2013-05-11 08:42:00,
2013-05-11 01:47:00,70.2,47.3,30.01,WSW,240,7.0,10.0,44,0.00,,,0.00,0.0,meteohub,2013-05-11 08:47:00,
2013-05-11 01:52:00,70.2,47.3,30.01,WSW,237,1.0,10.0,44,0.00,,,0.00,0.0,meteohub,2013-05-11 08:52:00,
2013-05-11 01:57:00,70.2,47.3,30.01,WSW,238,1.0,9.0,44,0.00,,,0.00,0.0,meteohub,2013-05-11 08:57:00,
2013-05-11 02:02:00,70.2,47.3,30.00,WSW,237,6.0,9.0,44,0.00,,,0.00,0.0,meteohub,2013-05-11 09:02:00,
2013-05-11 02:07:00,70.2,46.6,30.00,WSW,237,0.0,9.0,43,0.00,,,0.00,0.0,meteohub,2013-05-11 09:07:00,
2013-05-11 02:13:00,70.0,46.4,30.00,WSW,237,0.0,9.0,43,0.00,,,0.00,0.0,meteohub,2013-05-11 09:13:00,
2013-05-11 02:18:00,69.8,46.2,30.00,WSW,237,0.0,9.0,43,0.00,,,0.00,0.0,meteohub,2013-05-11 09:18:00,
2013-05-11 02:23:00,69.6,46.2,30.00,WSW,237,0.0,6.0,43,0.00,,,0.00,0.0,meteohub,2013-05-11 09:23:00,
2013-05-11 02:28:00,69.4,46.6,30.00,WSW,237,0.0,6.0,44,0.00,,,0.00,0.0,meteohub,2013-05-11 09:28:00,
2013-05-11 02:33:00,69.3,46.9,30.00,WSW,237,0.0,6.0,45,0.00,,,0.00,0.0,meteohub,2013-05-11 09:33:00,
2013-05-11 02:38:00,68.9,46.8,30.00,WSW,237,0.0,6.0,45,0.00,,,0.00,0.0,meteohub,2013-05-11 09:38:00,
2013-05-11 02:43:00,68.5,46.9,30.00,WSW,237,0.0,0.0,46,0.00,,,0.00,0.0,meteohub,2013-05-11 09:43:00,
2013-05-11 02:48:00,68.2,47.1,30.00,WSW,237,0.0,0.0,47,0.00,,,0.00,0.0,meteohub,2013-05-11 09:48:00,
2013-05-11 02:53:00,67.8,46.9,30.00,WSW,237,0.0,0.0,47,0.00,,,0.00,0.0,meteohub,2013-05-11 09:53:00,
2013-05-11 02:58:00,67.5,47.7,30.00,WSW,237,0.0,0.0,49,0.00,,,0.00,0.0,meteohub,2013-05-11 09:58:00,
2013-05-11 03:03:00,66.9,47.1,30.00,WSW,237,0.0,0.0,49,0.00,,,0.00,0.0,meteohub,2013-05-11 10:03:00,
2013-05-11 03:08:00,66.6,46.8,30.00,WSW,237,0.0,0.0,49,0.00,,,0.00,0.0,meteohub,2013-05-11 10:08:00,
2013-05-11 03:13:00,66.4,47.1,30.00,WSW,237,0.0,0.0,50,0.00,,,0.00,0.0,meteohub,2013-05-11 10:13:00,
2013-05-11 03:18:00,66.0,46.8,30.00,WSW,237,0.0,0.0,50,0.00,,,0.00,0.0,meteohub,2013-05-11 10:18:00,
2013-05-11 03:23:00,65.8,46.8,30.00,WSW,237,0.0,0.0,50,0.00,,,0.00,0.0,meteohub,2013-05-11 10:23:00,
2013-05-11 03:28:00,65.5,46.4,30.00,WSW,237,0.0,0.0,50,0.00,,,0.00,0.0,meteohub,2013-05-11 10:28:00,
2013-05-11 03:33:00,65.3,46.8,30.00,WSW,237,0.0,0.0,51,0.00,,,0.00,0.0,meteohub,2013-05-11 10:33:00,
2013-05-11 03:38:00,64.9,46.4,30.00,WSW,237,0.0,0.0,51,0.00,,,0.00,0.0,meteohub,2013-05-11 10:38:00,
2013-05-11 03:43:00,64.8,45.7,30.00,WSW,237,0.0,0.0,50,0.00,,,0.00,0.0,meteohub,2013-05-11 10:43:00,
2013-05-11 03:48:00,64.4,45.3,29.99,WSW,237,0.0,0.0,50,0.00,,,0.00,0.0,meteohub,2013-05-11 10:48:00,
2013-05-11 03:53:00,64.2,45.7,29.99,WSW,237,0.0,0.0,51,0.00,,,0.00,0.0,meteohub,2013-05-11 10:53:00,
2013-05-11 03:58:00,64.0,45.5,29.99,WSW,237,0.0,0.0,51,0.00,,,0.00,0.0,meteohub,2013-05-11 10:58:00,
2013-05-11 04:03:00,63.7,45.1,29.99,WSW,237,0.0,0.0,51,0.00,,,0.00,0.0,meteohub,2013-05-11 11:03:00,
2013-05-11 04:08:00,63.7,45.1,29.99,WSW,237,0.0,0.0,51,0.00,,,0.00,0.0,meteohub,2013-05-11 11:08:00,
2013-05-11 04:13:00,63.3,45.0,29.99,WSW,237,0.0,0.0,51,0.00,,,0.00,0.0,meteohub,2013-05-11 11:13:00,
2013-05-11 04:18:00,63.1,44.8,29.99,WSW,237,0.0,0.0,51,0.00,,,0.00,0.0,meteohub,2013-05-11 11:18:00,
2013-05-11 04:23:00,63.0,44.6,29.99,WSW,237,0.0,0.0,51,0.00,,,0.00,0.0,meteohub,2013-05-11 11:23:00,
2013-05-11 04:28:00,62.8,45.0,29.99,WSW,237,0.0,0.0,52,0.00,,,0.00,0.0,meteohub,2013-05-11 11:28:00,
2013-05-11 04:33:00,62.4,45.1,29.99,WSW,237,0.0,0.0,53,0.00,,,0.00,0.0,meteohub,2013-05-11 11:33:00,
2013-05-11 04:38:00,62.2,45.0,29.99,WSW,237,0.0,0.0,53,0.00,,,0.00,0.0,meteohub,2013-05-11 11:38:00,
2013-05-11 04:43:00,62.1,44.8,29.99,WSW,237,0.0,0.0,53,0.00,,,0.00,0.0,meteohub,2013-05-11 11:43:00,
2013-05-11 04:48:00,61.9,45.1,29.99,WSW,237,0.0,0.0,54,0.00,,,0.00,0.0,meteohub,2013-05-11 11:48:00,
2013-05-11 04:53:00,61.5,44.8,29.99,WSW,237,0.0,0.0,54,0.00,,,0.00,0.0,meteohub,2013-05-11 11:53:00,
2013-05-11 04:58:00,61.3,45.0,29.99,WSW,237,0.0,0.0,55,0.00,,,0.00,0.0,meteohub,2013-05-11 11:58:00,
2013-05-11 05:03:00,61.0,44.8,29.99,WSW,237,0.0,0.0,55,0.00,,,0.00,0.0,meteohub,2013-05-11 12:03:00,
2013-05-11 05:08:00,60.6,44.8,30.00,WSW,237,0.0,0.0,56,0.00,,,0.00,0.0,meteohub,2013-05-11 12:08:00,
2013-05-11 05:13:00,60.4,45.7,30.00,WSW,237,0.0,0.0,58,0.00,,,0.00,0.0,meteohub,2013-05-11 12:13:00,
2013-05-11 05:18:00,60.3,45.5,30.00,WSW,237,0.0,0.0,58,0.00,,,0.00,0.0,meteohub,2013-05-11 12:18:00,
2013-05-11 05:23:00,59.9,45.5,30.00,WSW,237,0.0,0.0,59,0.00,,,0.00,0.0,meteohub,2013-05-11 12:23:00,
2013-05-11 05:28:00,59.7,45.9,30.00,WSW,237,0.0,0.0,60,0.00,,,0.00,0.0,meteohub,2013-05-11 12:28:00,
2013-05-11 05:34:00,59.5,46.0,30.00,WSW,237,0.0,0.0,61,0.00,,,0.00,0.0,meteohub,2013-05-11 12:34:00,
2013-05-11 05:39:00,59.4,46.4,30.00,WSW,237,0.0,0.0,62,0.00,,,0.00,0.0,meteohub,2013-05-11 12:39:00,
2013-05-11 05:44:00,59.4,46.4,30.00,WSW,237,0.0,0.0,62,0.00,,,0.00,0.0,meteohub,2013-05-11 12:44:00,
2013-05-11 05:49:00,59.2,46.6,30.00,WSW,237,0.0,0.0,63,0.00,,,0.00,0.0,meteohub,2013-05-11 12:49:00,
2013-05-11 05:54:00,58.8,46.2,30.01,WSW,237,0.0,0.0,63,0.00,,,0.00,5.0,meteohub,2013-05-11 12:54:00,
2013-05-11 05:59:00,58.8,46.2,30.01,WSW,237,0.0,0.0,63,0.00,,,0.00,7.0,meteohub,2013-05-11 12:59:00,
2013-05-11 06:04:00,58.6,46.6,30.01,WSW,237,0.0,0.0,64,0.00,,,0.00,9.0,meteohub,2013-05-11 13:04:00,
2013-05-11 06:09:00,58.6,46.0,30.01,WSW,237,0.0,0.0,63,0.00,,,0.00,12.0,meteohub,2013-05-11 13:09:00,
2013-05-11 06:14:00,58.6,46.6,30.01,WSW,237,0.0,0.0,64,0.00,,,0.00,16.0,meteohub,2013-05-11 13:14:00,
2013-05-11 06:19:00,58.6,46.6,30.01,WSW,237,0.0,0.0,64,0.00,,,0.00,18.0,meteohub,2013-05-11 13:19:00,
2013-05-11 06:24:00,58.6,46.0,30.01,WSW,237,0.0,0.0,63,0.00,,,0.00,21.0,meteohub,2013-05-11 13:24:00,
2013-05-11 06:29:00,58.8,46.2,30.02,WSW,237,0.0,0.0,63,0.00,,,0.00,25.0,meteohub,2013-05-11 13:29:00,
2013-05-11 06:34:00,59.4,46.8,30.02,WSW,237,0.0,0.0,63,0.00,,,0.00,32.0,meteohub,2013-05-11 13:34:00,
2013-05-11 06:39:00,59.7,47.1,30.02,WSW,237,0.0,0.0,63,0.00,,,0.00,40.0,meteohub,2013-05-11 13:39:00,
2013-05-11 06:44:00,60.1,46.6,30.02,WSW,237,0.0,0.0,61,0.00,,,0.00,54.0,meteohub,2013-05-11 13:44:00,
2013-05-11 06:49:00,60.6,47.1,30.02,WSW,237,0.0,0.0,61,0.00,,,0.00,74.0,meteohub,2013-05-11 13:49:00,
2013-05-11 06:54:00,61.2,47.1,30.02,WSW,237,0.0,1.0,60,0.00,,,0.00,93.0,meteohub,2013-05-11 13:54:00,
2013-05-11 06:59:00,61.5,47.1,30.02,WSW,237,0.0,1.0,59,0.00,,,0.00,113.0,meteohub,2013-05-11 13:59:00,
2013-05-11 07:04:00,62.2,47.3,30.02,WSW,237,0.0,1.0,58,0.00,,,0.00,132.0,meteohub,2013-05-11 14:04:00,
2013-05-11 07:09:00,63.0,47.5,30.02,WSW,237,0.0,1.0,57,0.00,,,0.00,151.0,meteohub,2013-05-11 14:09:00,
2013-05-11 07:14:00,63.7,48.2,30.02,WSW,237,0.0,1.0,57,0.00,,,0.00,172.0,meteohub,2013-05-11 14:14:00,
2013-05-11 07:19:00,64.4,47.8,30.02,WSW,237,0.0,1.0,55,0.00,,,0.00,192.0,meteohub,2013-05-11 14:19:00,
2013-05-11 07:24:00,65.1,48.0,30.02,WSW,237,0.0,1.0,54,0.00,,,0.00,211.0,meteohub,2013-05-11 14:24:00,
2013-05-11 07:29:00,65.8,49.3,30.02,WSW,237,0.0,1.0,55,0.00,,,0.00,229.0,meteohub,2013-05-11 14:29:00,
2013-05-11 07:34:00,66.6,49.5,30.02,WSW,237,0.0,1.0,54,0.00,,,0.00,243.0,meteohub,2013-05-11 14:34:00,
2013-05-11 07:39:00,67.5,49.8,30.02,WSW,237,0.0,1.0,53,0.00,,,0.00,260.0,meteohub,2013-05-11 14:39:00,
2013-05-11 07:44:00,68.2,49.8,30.03,WSW,237,0.0,0.0,52,0.00,,,0.00,278.0,meteohub,2013-05-11 14:44:00,
2013-05-11 07:49:00,68.7,50.4,30.03,WSW,237,0.0,0.0,52,0.00,,,0.00,295.0,meteohub,2013-05-11 14:49:00,
2013-05-11 07:54:00,69.4,50.5,30.03,WSW,237,0.0,0.0,51,0.00,,,0.00,315.0,meteohub,2013-05-11 14:54:00,
2013-05-11 07:59:00,70.0,50.0,30.03,WSW,237,0.0,0.0,49,0.00,,,0.00,332.0,meteohub,2013-05-11 14:59:00,
2013-05-11 08:04:00,70.7,48.9,30.03,WSW,237,0.0,1.0,46,0.00,,,0.00,350.0,meteohub,2013-05-11 15:04:00,
2013-05-11 08:09:00,71.2,48.2,30.03,WSW,237,0.0,1.0,44,0.00,,,0.00,366.0,meteohub,2013-05-11 15:09:00,
2013-05-11 08:14:00,72.0,49.5,30.03,WSW,237,0.0,1.0,45,0.00,,,0.00,383.0,meteohub,2013-05-11 15:14:00,
2013-05-11 08:19:00,72.7,48.9,30.03,WSW,237,0.0,1.0,43,0.00,,,0.00,401.0,meteohub,2013-05-11 15:19:00,
2013-05-11 08:25:00,73.0,48.6,30.03,WSW,237,0.0,1.0,42,0.00,,,0.00,420.0,meteohub,2013-05-11 15:25:00,
2013-05-11 08:30:00,73.8,49.3,30.03,WSW,237,0.0,0.0,42,0.00,,,0.00,439.0,meteohub,2013-05-11 15:30:00,
2013-05-11 08:35:00,74.3,49.1,30.03,WSW,237,0.0,0.0,41,0.00,,,0.00,457.0,meteohub,2013-05-11 15:35:00,
2013-05-11 08:40:00,74.8,48.2,30.04,WSW,237,0.0,0.0,39,0.00,,,0.00,475.0,meteohub,2013-05-11 15:40:00,
2013-05-11 08:45:00,75.6,49.5,30.04,WSW,237,0.0,0.0,40,0.00,,,0.00,492.0,meteohub,2013-05-11 15:45:00,
2013-05-11 08:50:00,76.3,49.5,30.04,WSW,237,0.0,0.0,39,0.00,,,0.00,508.0,meteohub,2013-05-11 15:50:00,
2013-05-11 08:55:00,77.0,49.5,30.04,WSW,237,0.0,0.0,38,0.00,,,0.00,522.0,meteohub,2013-05-11 15:55:00,
2013-05-11 09:00:00,77.5,50.0,30.04,WSW,237,0.0,0.0,38,0.00,,,0.00,543.0,meteohub,2013-05-11 16:00:00,
2013-05-11 09:05:00,77.9,49.5,30.04,WSW,237,0.0,0.0,37,0.00,,,0.00,557.0,meteohub,2013-05-11 16:05:00,
2013-05-11 09:10:00,78.4,50.0,30.04,WSW,237,0.0,0.0,37,0.00,,,0.00,575.0,meteohub,2013-05-11 16:10:00,
2013-05-11 09:15:00,78.6,50.2,30.04,WSW,238,2.0,0.0,37,0.00,,,0.00,592.0,meteohub,2013-05-11 16:15:00,
2013-05-11 09:20:00,78.6,50.9,30.04,WSW,238,0.0,5.0,38,0.00,,,0.00,608.0,meteohub,2013-05-11 16:20:00,
2013-05-11 09:25:00,79.0,49.8,30.04,WSW,238,0.0,5.0,36,0.00,,,0.00,624.0,meteohub,2013-05-11 16:25:00,
2013-05-11 09:30:00,79.2,49.8,30.04,WSW,238,0.0,5.0,36,0.00,,,0.00,638.0,meteohub,2013-05-11 16:30:00,
2013-05-11 09:35:00,79.5,50.2,30.04,WSW,238,0.0,5.0,36,0.00,,,0.00,656.0,meteohub,2013-05-11 16:35:00,
2013-05-11 09:40:00,80.1,50.0,30.04,WSW,238,0.0,2.0,35,0.00,,,0.00,671.0,meteohub,2013-05-11 16:40:00,
2013-05-11 09:45:00,80.6,50.4,30.04,WSW,238,0.0,2.0,35,0.00,,,0.00,686.0,meteohub,2013-05-11 16:45:00,
2013-05-11 09:50:00,81.0,49.1,30.04,WSW,238,0.0,2.0,33,0.00,,,0.00,700.0,meteohub,2013-05-11 16:50:00,
2013-05-11 09:55:00,81.1,49.3,30.04,WSW,238,0.0,1.0,33,0.00,,,0.00,715.0,meteohub,2013-05-11 16:55:00,
2013-05-11 10:00:00,81.5,48.0,30.04,WSW,238,0.0,1.0,31,0.00,,,0.00,728.0,meteohub,2013-05-11 17:00:00,
2013-05-11 10:05:00,81.9,49.1,30.04,WSW,238,0.0,1.0,32,0.00,,,0.00,744.0,meteohub,2013-05-11 17:05:00,
2013-05-11 10:10:00,82.6,48.9,30.04,WSW,238,0.0,1.0,31,0.00,,,0.00,756.0,meteohub,2013-05-11 17:10:00,
2013-05-11 10:15:00,83.3,48.6,30.03,WSW,237,0.0,5.0,30,0.00,,,0.00,770.0,meteohub,2013-05-11 17:15:00,
2013-05-11 10:20:00,83.8,48.2,30.04,ENE,76,5.0,5.0,29,0.00,,,0.00,784.0,meteohub,2013-05-11 17:20:00,
2013-05-11 10:25:00,83.8,48.2,30.03,ENE,70,3.0,5.0,29,0.00,,,0.00,796.0,meteohub,2013-05-11 17:25:00,
2013-05-11 10:30:00,83.8,48.2,30.04,NE,52,0.0,6.0,29,0.00,,,0.00,807.0,meteohub,2013-05-11 17:30:00,
2013-05-11 10:35:00,84.2,49.5,30.04,NE,52,0.0,6.0,30,0.00,,,0.00,817.0,meteohub,2013-05-11 17:35:00,
2013-05-11 10:40:00,84.7,49.8,30.04,ENE,72,2.0,6.0,30,0.00,,,0.00,831.0,meteohub,2013-05-11 17:40:00,
2013-05-11 10:45:00,84.9,48.2,30.04,ENE,67,0.0,6.0,28,0.00,,,0.00,842.0,meteohub,2013-05-11 17:45:00,
2013-05-11 10:50:00,85.5,49.6,30.04,ENE,67,0.0,8.0,29,0.00,,,0.00,854.0,meteohub,2013-05-11 17:50:00,
2013-05-11 10:55:00,85.3,48.6,30.04,NNE,24,6.0,8.0,28,0.00,,,0.00,867.0,meteohub,2013-05-11 17:55:00,
2013-05-11 11:00:00,85.1,48.4,30.04,NE,49,0.0,8.0,28,0.00,,,0.00,879.0,meteohub,2013-05-11 18:00:00,
2013-05-11 11:05:00,85.6,48.7,30.04,NE,53,0.0,8.0,28,0.00,,,0.00,886.0,meteohub,2013-05-11 18:05:00,
2013-05-11 11:10:00,85.8,46.9,30.03,NE,44,0.0,7.0,26,0.00,,,0.00,896.0,meteohub,2013-05-11 18:10:00,
2013-05-11 11:15:00,86.0,47.1,30.03,ENE,73,0.0,7.0,26,0.00,,,0.00,905.0,meteohub,2013-05-11 18:15:00,
2013-05-11 11:20:00,87.1,48.0,30.03,ESE,112,3.0,6.0,26,0.00,,,0.00,919.0,meteohub,2013-05-11 18:20:00,
2013-05-11 11:25:00,87.6,47.5,30.03,ESE,104,0.0,6.0,25,0.00,,,0.00,900.0,meteohub,2013-05-11 18:25:00,
2013-05-11 11:30:00,88.2,47.8,30.03,East,95,6.0,6.0,25,0.00,,,0.00,942.0,meteohub,2013-05-11 18:30:00,
2013-05-11 11:35:00,88.9,46.2,30.03,East,91,1.0,6.0,23,0.00,,,0.00,944.0,meteohub,2013-05-11 18:35:00,
2013-05-11 11:41:00,88.9,46.2,30.02,NE,54,5.0,8.0,23,0.00,,,0.00,958.0,meteohub,2013-05-11 18:41:00,
2013-05-11 11:46:00,88.3,43.5,30.02,ENE,57,2.0,8.0,21,0.00,,,0.00,969.0,meteohub,2013-05-11 18:46:00,
2013-05-11 11:51:00,88.3,44.6,30.02,NE,34,4.0,8.0,22,0.00,,,0.00,967.0,meteohub,2013-05-11 18:51:00,
2013-05-11 11:56:00,88.5,43.5,30.02,ESE,107,3.0,8.0,21,0.00,,,0.00,970.0,meteohub,2013-05-11 18:56:00,
2013-05-11 12:01:00,89.2,46.6,30.02,ESE,110,3.0,8.0,23,0.00,,,0.00,977.0,meteohub,2013-05-11 19:01:00,
2013-05-11 12:06:00,89.4,43.0,30.02,NE,42,0.0,8.0,20,0.00,,,0.00,979.0,meteohub,2013-05-11 19:06:00,
2013-05-11 12:11:00,88.9,43.9,30.02,NNE,20,0.0,8.0,21,0.00,,,0.00,970.0,meteohub,2013-05-11 19:11:00,
2013-05-11 12:16:00,89.4,44.4,30.02,NE,50,6.0,9.0,21,0.00,,,0.00,988.0,meteohub,2013-05-11 19:16:00,
2013-05-11 12:21:00,89.8,44.6,30.01,East,91,5.0,9.0,21,0.00,,,0.00,997.0,meteohub,2013-05-11 19:21:00,
2013-05-11 12:26:00,90.0,43.5,30.01,NNE,15,2.0,9.0,20,0.00,,,0.00,998.0,meteohub,2013-05-11 19:26:00,
2013-05-11 12:31:00,90.0,43.5,30.01,East,101,0.0,9.0,20,0.00,,,0.00,997.0,meteohub,2013-05-11 19:31:00,
2013-05-11 12:36:00,89.6,44.4,30.01,ENE,69,3.0,11.0,21,0.00,,,0.00,988.0,meteohub,2013-05-11 19:36:00,
2013-05-11 12:41:00,90.1,46.2,30.01,NE,51,5.0,11.0,22,0.00,,,0.00,998.0,meteohub,2013-05-11 19:41:00,
2013-05-11 12:46:00,90.5,43.9,30.01,East,101,4.0,11.0,20,0.00,,,0.00,1004.0,meteohub,2013-05-11 19:46:00,
2013-05-11 12:51:00,91.0,44.4,30.01,ENE,75,6.0,11.0,20,0.00,,,0.00,1005.0,meteohub,2013-05-11 19:51:00,
2013-05-11 12:56:00,91.0,44.4,30.01,ENE,71,0.0,11.0,20,0.00,,,0.00,997.0,meteohub,2013-05-11 19:56:00,
2013-05-11 13:01:00,91.0,44.4,30.00,ENE,62,7.0,14.0,20,0.00,,,0.00,1002.0,meteohub,2013-05-11 20:01:00,
2013-05-11 13:06:00,91.4,41.9,30.00,East,82,1.0,14.0,18,0.00,,,0.00,1000.0,meteohub,2013-05-11 20:06:00,
2013-05-11 13:11:00,91.2,43.2,30.00,ENE,74,6.0,14.0,19,0.00,,,0.00,1004.0,meteohub,2013-05-11 20:11:00,
2013-05-11 13:16:00,91.0,43.0,30.00,NE,53,10.0,14.0,19,0.00,,,0.00,1007.0,meteohub,2013-05-11 20:16:00,
2013-05-11 13:21:00,91.0,41.7,30.00,NE,47,6.0,14.0,18,0.00,,,0.00,1005.0,meteohub,2013-05-11 20:21:00,
2013-05-11 13:26:00,91.0,41.7,30.00,NE,52,2.0,14.0,18,0.00,,,0.00,1004.0,meteohub,2013-05-11 20:26:00,
2013-05-11 13:31:00,91.4,43.3,29.99,NNW,327,2.0,13.0,19,0.00,,,0.00,998.0,meteohub,2013-05-11 20:31:00,
2013-05-11 13:36:00,91.9,40.8,29.99,NNE,13,4.0,13.0,17,0.00,,,0.00,993.0,meteohub,2013-05-11 20:36:00,
2013-05-11 13:41:00,92.3,44.1,29.99,NE,53,5.0,13.0,19,0.00,,,0.00,990.0,meteohub,2013-05-11 20:41:00,
2013-05-11 13:46:00,91.8,43.7,29.99,NNW,337,4.0,13.0,19,0.00,,,0.00,990.0,meteohub,2013-05-11 20:46:00,
2013-05-11 13:51:00,91.6,43.5,29.99,NE,49,0.0,13.0,19,0.00,,,0.00,986.0,meteohub,2013-05-11 20:51:00,
2013-05-11 13:56:00,91.9,45.1,29.99,NE,43,2.0,13.0,20,0.00,,,0.00,984.0,meteohub,2013-05-11 20:56:00,
2013-05-11 14:01:00,92.5,42.8,29.99,NE,55,4.0,13.0,18,0.00,,,0.00,972.0,meteohub,2013-05-11 21:01:00,
2013-05-11 14:06:00,92.7,43.0,29.98,NE,49,2.0,13.0,18,0.00,,,0.00,965.0,meteohub,2013-05-11 21:06:00,
2013-05-11 14:12:00,92.5,41.4,29.98,East,86,7.0,13.0,17,0.00,,,0.00,969.0,meteohub,2013-05-11 21:12:00,
2013-05-11 14:17:00,92.8,44.6,29.97,ESE,103,5.0,13.0,19,0.00,,,0.00,965.0,meteohub,2013-05-11 21:17:00,
2013-05-11 14:22:00,92.8,43.2,29.98,NW,317,6.0,13.0,18,0.00,,,0.00,956.0,meteohub,2013-05-11 21:22:00,
2013-05-11 14:27:00,92.7,44.4,29.98,NNW,327,8.0,12.0,19,0.00,,,0.00,946.0,meteohub,2013-05-11 21:27:00,
2013-05-11 14:32:00,92.1,42.4,29.97,NW,321,6.0,12.0,18,0.00,,,0.00,942.0,meteohub,2013-05-11 21:32:00,
2013-05-11 14:37:00,92.3,41.2,29.97,NNW,329,0.0,12.0,17,0.00,,,0.00,933.0,meteohub,2013-05-11 21:37:00,
2013-05-11 14:42:00,92.8,43.2,29.97,North,5,0.0,12.0,18,0.00,,,0.00,932.0,meteohub,2013-05-11 21:42:00,
2013-05-11 14:47:00,93.0,41.7,29.97,NE,38,1.0,11.0,17,0.00,,,0.00,916.0,meteohub,2013-05-11 21:47:00,
2013-05-11 14:52:00,93.0,43.3,29.96,NNW,340,1.0,11.0,18,0.00,,,0.00,911.0,meteohub,2013-05-11 21:52:00,
2013-05-11 14:57:00,92.7,43.0,29.96,NNE,18,6.0,11.0,18,0.00,,,0.00,907.0,meteohub,2013-05-11 21:57:00,
2013-05-11 15:02:00,92.7,39.9,29.96,NE,51,4.0,11.0,16,0.00,,,0.00,907.0,meteohub,2013-05-11 22:02:00,
2013-05-11 15:07:00,92.7,41.5,29.96,NE,36,0.0,10.0,17,0.00,,,0.00,904.0,meteohub,2013-05-11 22:07:00,
2013-05-11 15:12:00,93.0,41.7,29.96,SE,128,4.0,10.0,17,0.00,,,0.00,904.0,meteohub,2013-05-11 22:12:00,
2013-05-11 15:17:00,93.7,39.2,29.95,NE,36,4.0,10.0,15,0.00,,,0.00,884.0,meteohub,2013-05-11 22:17:00,
2013-05-11 15:22:00,94.5,39.7,29.95,SE,128,0.0,8.0,15,0.00,,,0.00,851.0,meteohub,2013-05-11 22:22:00,
2013-05-11 15:27:00,95.0,40.1,29.95,SE,127,0.0,8.0,15,0.00,,,0.00,846.0,meteohub,2013-05-11 22:27:00,
2013-05-11 15:32:00,94.6,39.7,29.95,ENE,76,5.0,8.0,15,0.00,,,0.00,204.0,meteohub,2013-05-11 22:32:00,
2013-05-11 15:37:00,93.9,41.0,29.95,NNE,17,7.0,16.0,16,0.00,,,0.00,381.0,meteohub,2013-05-11 22:37:00,
2013-05-11 15:42:00,93.6,37.2,29.95,NE,53,0.0,16.0,14,0.00,,,0.00,837.0,meteohub,2013-05-11 22:42:00,
2013-05-11 15:47:00,94.3,39.6,29.95,ENE,63,7.0,16.0,15,0.00,,,0.00,805.0,meteohub,2013-05-11 22:47:00,
2013-05-11 15:52:00,94.5,41.4,29.94,NNE,18,6.0,16.0,16,0.00,,,0.00,798.0,meteohub,2013-05-11 22:52:00,
2013-05-11 15:57:00,94.3,39.6,29.94,East,99,2.0,10.0,15,0.00,,,0.00,766.0,meteohub,2013-05-11 22:57:00,
2013-05-11 16:02:00,93.9,42.4,29.94,South,181,2.0,10.0,17,0.00,,,0.00,751.0,meteohub,2013-05-11 23:02:00,
2013-05-11 16:07:00,94.1,41.0,29.94,NNE,17,2.0,10.0,16,0.00,,,0.00,738.0,meteohub,2013-05-11 23:07:00,
2013-05-11 16:12:00,94.1,39.4,29.94,East,88,0.0,10.0,15,0.00,,,0.00,731.0,meteohub,2013-05-11 23:12:00,
2013-05-11 16:17:00,94.5,39.7,29.94,ESE,111,6.0,11.0,15,0.00,,,0.00,710.0,meteohub,2013-05-11 23:17:00,
2013-05-11 16:22:00,95.2,40.3,29.94,ESE,117,4.0,11.0,15,0.00,,,0.00,677.0,meteohub,2013-05-11 23:22:00,
2013-05-11 16:27:00,95.4,40.5,29.94,NE,44,5.0,11.0,15,0.00,,,0.00,666.0,meteohub,2013-05-11 23:27:00,
2013-05-11 16:32:00,94.8,39.9,29.94,NNE,26,1.0,10.0,15,0.00,,,0.00,649.0,meteohub,2013-05-11 23:32:00,
2013-05-11 16:38:00,94.8,41.7,29.94,NNE,28,2.0,10.0,16,0.00,,,0.00,640.0,meteohub,2013-05-11 23:38:00,
2013-05-11 16:43:00,95.5,40.5,29.93,ENE,66,0.0,10.0,15,0.00,,,0.00,626.0,meteohub,2013-05-11 23:43:00,
2013-05-11 16:48:00,95.4,42.1,29.93,ENE,59,0.0,10.0,16,0.00,,,0.00,606.0,meteohub,2013-05-11 23:48:00,
2013-05-11 16:53:00,95.4,40.5,29.93,ENE,59,0.0,9.0,15,0.00,,,0.00,592.0,meteohub,2013-05-11 23:53:00,
2013-05-11 16:58:00,95.7,40.6,29.93,NE,38,1.0,9.0,15,0.00,,,0.00,575.0,meteohub,2013-05-11 23:58:00,
2013-05-11 17:03:00,95.4,40.5,29.93,NE,36,9.0,9.0,15,0.00,,,0.00,552.0,meteohub,2013-05-12 00:03:00,
2013-05-11 17:08:00,94.5,39.7,29.93,NE,55,3.0,13.0,15,0.00,,,0.00,541.0,meteohub,2013-05-12 00:08:00,
2013-05-11 17:13:00,94.1,39.4,29.93,East,81,2.0,13.0,15,0.00,,,0.00,520.0,meteohub,2013-05-12 00:13:00,
2013-05-11 17:18:00,93.9,39.2,29.93,ESE,109,0.0,13.0,15,0.00,,,0.00,503.0,meteohub,2013-05-12 00:18:00,
2013-05-11 17:23:00,94.6,39.7,29.93,ESE,109,0.0,14.0,15,0.00,,,0.00,492.0,meteohub,2013-05-12 00:23:00,
2013-05-11 17:28:00,95.2,41.9,29.93,NW,313,6.0,14.0,16,0.00,,,0.00,469.0,meteohub,2013-05-12 00:28:00,
2013-05-11 17:33:00,94.8,39.9,29.93,NW,325,0.0,14.0,15,0.00,,,0.00,445.0,meteohub,2013-05-12 00:33:00,
2013-05-11 17:38:00,94.6,39.7,29.93,NNW,348,1.0,8.0,15,0.00,,,0.00,424.0,meteohub,2013-05-12 00:38:00,
2013-05-11 17:43:00,94.5,39.7,29.93,NNW,348,0.0,8.0,15,0.00,,,0.00,408.0,meteohub,2013-05-12 00:43:00,
2013-05-11 17:48:00,94.6,41.5,29.92,North,0,0.0,8.0,16,0.00,,,0.00,388.0,meteohub,2013-05-12 00:48:00,
2013-05-11 17:53:00,95.0,40.1,29.92,ESE,118,1.0,8.0,15,0.00,,,0.00,367.0,meteohub,2013-05-12 00:53:00,
2013-05-11 17:58:00,95.4,40.5,29.92,ESE,105,2.0,5.0,15,0.00,,,0.00,346.0,meteohub,2013-05-12 00:58:00,
2013-05-11 18:03:00,95.0,38.3,29.92,East,85,3.0,5.0,14,0.00,,,0.00,329.0,meteohub,2013-05-12 01:03:00,
2013-05-11 18:08:00,94.8,39.9,29.92,East,90,2.0,5.0,15,0.00,,,0.00,309.0,meteohub,2013-05-12 01:08:00,
2013-05-11 18:13:00,94.8,39.9,29.92,NE,50,2.0,5.0,15,0.00,,,0.00,290.0,meteohub,2013-05-12 01:13:00,
2013-05-11 18:18:00,94.6,39.7,29.92,NE,47,6.0,10.0,15,0.00,,,0.00,269.0,meteohub,2013-05-12 01:18:00,
2013-05-11 18:23:00,94.3,39.6,29.91,ENE,57,3.0,10.0,15,0.00,,,0.00,251.0,meteohub,2013-05-12 01:23:00,
2013-05-11 18:28:00,93.6,39.0,29.91,NNE,32,1.0,10.0,15,0.00,,,0.00,229.0,meteohub,2013-05-12 01:28:00,
2013-05-11 18:33:00,93.4,38.8,29.91,NE,34,1.0,10.0,15,0.00,,,0.00,206.0,meteohub,2013-05-12 01:33:00,
2013-05-11 18:38:00,93.0,40.3,29.91,NE,36,1.0,10.0,16,0.00,,,0.00,183.0,meteohub,2013-05-12 01:38:00,
2013-05-11 18:43:00,92.7,39.9,29.91,ENE,63,1.0,7.0,16,0.00,,,0.00,160.0,meteohub,2013-05-12 01:43:00,
2013-05-11 18:48:00,92.7,38.3,29.92,ENE,62,2.0,7.0,15,0.00,,,0.00,139.0,meteohub,2013-05-12 01:48:00,
2013-05-11 18:53:00,92.7,39.9,29.92,ENE,62,0.0,7.0,16,0.00,,,0.00,116.0,meteohub,2013-05-12 01:53:00,
2013-05-11 18:58:00,92.7,39.9,29.92,ENE,63,2.0,7.0,16,0.00,,,0.00,97.0,meteohub,2013-05-12 01:58:00,
2013-05-11 19:03:00,92.7,38.3,29.92,ESE,112,3.0,7.0,15,0.00,,,0.00,81.0,meteohub,2013-05-12 02:03:00,
2013-05-11 19:08:00,92.5,39.7,29.92,East,90,0.0,7.0,16,0.00,,,0.00,65.0,meteohub,2013-05-12 02:08:00,
2013-05-11 19:13:00,92.5,39.7,29.92,East,90,1.0,6.0,16,0.00,,,0.00,49.0,meteohub,2013-05-12 02:13:00,
2013-05-11 19:18:00,91.9,39.4,29.92,East,80,0.0,6.0,16,0.00,,,0.00,37.0,meteohub,2013-05-12 02:18:00,
2013-05-11 19:23:00,91.8,39.2,29.92,East,80,0.0,6.0,16,0.00,,,0.00,25.0,meteohub,2013-05-12 02:23:00,
2013-05-11 19:28:00,90.9,45.5,29.92,SW,222,0.0,6.0,21,0.00,,,0.00,18.0,meteohub,2013-05-12 02:28:00,
2013-05-11 19:33:00,89.6,46.9,29.93,SW,221,0.0,6.0,23,0.00,,,0.00,12.0,meteohub,2013-05-12 02:33:00,
2013-05-11 19:38:00,88.5,47.1,29.93,SW,221,0.0,6.0,24,0.00,,,0.00,9.0,meteohub,2013-05-12 02:38:00,
2013-05-11 19:43:00,87.8,46.6,29.93,SW,221,5.0,8.0,24,0.00,,,0.00,5.0,meteohub,2013-05-12 02:43:00,
2013-05-11 19:48:00,87.1,46.9,29.93,SW,221,0.0,8.0,25,0.00,,,0.00,0.0,meteohub,2013-05-12 02:48:00,
2013-05-11 19:53:00,86.5,46.6,29.93,SW,221,5.0,8.0,25,0.00,,,0.00,0.0,meteohub,2013-05-12 02:53:00,
2013-05-11 19:58:00,85.8,45.9,29.94,SW,216,0.0,8.0,25,0.00,,,0.00,0.0,meteohub,2013-05-12 02:58:00,
2013-05-11 20:03:00,85.3,46.6,29.94,SSW,205,0.0,8.0,26,0.00,,,0.00,0.0,meteohub,2013-05-12 03:03:00,
2013-05-11 20:09:00,84.7,46.0,29.94,SSW,205,0.0,8.0,26,0.00,,,0.00,0.0,meteohub,2013-05-12 03:09:00,
2013-05-11 20:14:00,84.4,45.7,29.94,SSW,205,0.0,7.0,26,0.00,,,0.00,0.0,meteohub,2013-05-12 03:14:00,
2013-05-11 20:19:00,83.8,45.3,29.94,SSW,207,0.0,7.0,26,0.00,,,0.00,0.0,meteohub,2013-05-12 03:19:00,
2013-05-11 20:24:00,83.5,46.0,29.94,SSW,208,0.0,7.0,27,0.00,,,0.00,0.0,meteohub,2013-05-12 03:24:00,
2013-05-11 20:29:00,83.1,45.7,29.94,SSW,209,5.0,7.0,27,0.00,,,0.00,0.0,meteohub,2013-05-12 03:29:00,
2013-05-11 20:34:00,82.8,45.3,29.95,SSW,209,2.0,7.0,27,0.00,,,0.00,0.0,meteohub,2013-05-12 03:34:00,
2013-05-11 20:39:00,82.0,43.7,29.95,SW,223,3.0,7.0,26,0.00,,,0.00,0.0,meteohub,2013-05-12 03:39:00,
2013-05-11 20:44:00,81.7,44.4,29.95,SW,222,3.0,7.0,27,0.00,,,0.00,0.0,meteohub,2013-05-12 03:44:00,
2013-05-11 20:49:00,81.3,44.1,29.95,SW,222,0.0,7.0,27,0.00,,,0.00,0.0,meteohub,2013-05-12 03:49:00,
2013-05-11 20:54:00,81.3,44.1,29.96,SW,223,8.0,8.0,27,0.00,,,0.00,0.0,meteohub,2013-05-12 03:54:00,
2013-05-11 20:59:00,81.3,44.1,29.96,SW,224,3.0,8.0,27,0.00,,,0.00,0.0,meteohub,2013-05-12 03:59:00,
2013-05-11 21:01:00,81.3,44.1,29.96,SW,224,2.0,8.0,27,0.00,,,0.00,0.0,meteohub,2013-05-12 04:01:00,
2013-05-11 21:06:00,81.1,44.1,29.96,SW,224,0.0,8.0,27,0.00,,,0.00,0.0,meteohub,2013-05-12 04:06:00,
2013-05-11 21:11:00,81.1,44.1,29.96,SW,224,0.0,8.0,27,0.00,,,0.00,0.0,meteohub,2013-05-12 04:11:00,
2013-05-11 21:16:00,81.0,44.8,29.96,SW,224,2.0,8.0,28,0.00,,,0.00,0.0,meteohub,2013-05-12 04:16:00,
2013-05-11 21:21:00,81.0,44.8,29.96,SW,223,0.0,8.0,28,0.00,,,0.00,0.0,meteohub,2013-05-12 04:21:00,
2013-05-11 21:26:00,80.8,45.5,29.96,SW,223,0.0,8.0,29,0.00,,,0.00,0.0,meteohub,2013-05-12 04:26:00,
2013-05-11 21:31:00,80.6,46.2,29.97,SW,223,1.0,7.0,30,0.00,,,0.00,0.0,meteohub,2013-05-12 04:31:00,
2013-05-11 21:37:00,80.4,46.2,29.97,SW,224,0.0,7.0,30,0.00,,,0.00,0.0,meteohub,2013-05-12 04:37:00,
2013-05-11 21:42:00,80.4,46.9,29.97,SW,224,1.0,7.0,31,0.00,,,0.00,0.0,meteohub,2013-05-12 04:42:00,
2013-05-11 21:47:00,80.2,47.7,29.97,SW,224,0.0,7.0,32,0.00,,,0.00,0.0,meteohub,2013-05-12 04:47:00,
2013-05-11 21:52:00,80.1,47.5,29.98,SW,224,4.0,5.0,32,0.00,,,0.00,0.0,meteohub,2013-05-12 04:52:00,
2013-05-11 21:57:00,79.9,48.2,29.98,SW,224,4.0,5.0,33,0.00,,,0.00,0.0,meteohub,2013-05-12 04:57:00,
2013-05-11 22:02:00,79.5,47.8,29.98,SW,224,0.0,5.0,33,0.00,,,0.00,0.0,meteohub,2013-05-12 05:02:00,
2013-05-11 22:07:00,79.3,48.6,29.98,SW,224,3.0,5.0,34,0.00,,,0.00,0.0,meteohub,2013-05-12 05:07:00,
2013-05-11 22:12:00,79.3,48.6,29.98,SW,224,2.0,5.0,34,0.00,,,0.00,0.0,meteohub,2013-05-12 05:12:00,
2013-05-11 22:17:00,79.2,49.1,29.98,SW,224,0.0,8.0,35,0.00,,,0.00,0.0,meteohub,2013-05-12 05:17:00,
2013-05-11 22:22:00,78.8,48.9,29.98,SW,224,0.0,8.0,35,0.00,,,0.00,0.0,meteohub,2013-05-12 05:22:00,
2013-05-11 22:27:00,78.4,49.3,29.98,SW,224,0.0,8.0,36,0.00,,,0.00,0.0,meteohub,2013-05-12 05:27:00,
2013-05-11 22:32:00,78.3,49.1,29.98,SW,224,0.0,5.0,36,0.00,,,0.00,0.0,meteohub,2013-05-12 05:32:00,
2013-05-11 22:37:00,77.7,48.6,29.98,SW,224,0.0,5.0,36,0.00,,,0.00,0.0,meteohub,2013-05-12 05:37:00,
2013-05-11 22:42:00,77.5,49.3,29.99,SW,224,0.0,5.0,37,0.00,,,0.00,0.0,meteohub,2013-05-12 05:42:00,
2013-05-11 22:47:00,77.4,49.1,29.99,SW,224,0.0,5.0,37,0.00,,,0.00,0.0,meteohub,2013-05-12 05:47:00,
2013-05-11 22:52:00,77.0,49.5,29.99,SW,225,0.0,5.0,38,0.00,,,0.00,0.0,meteohub,2013-05-12 05:52:00,
2013-05-11 22:57:00,76.6,49.1,29.99,SW,225,0.0,5.0,38,0.00,,,0.00,0.0,meteohub,2013-05-12 05:57:00,
2013-05-11 23:02:00,76.3,49.5,29.99,SW,225,0.0,5.0,39,0.00,,,0.00,0.0,meteohub,2013-05-12 06:02:00,
2013-05-11 23:07:00,76.1,49.3,29.99,SW,225,0.0,5.0,39,0.00,,,0.00,0.0,meteohub,2013-05-12 06:07:00,
2013-05-11 23:12:00,75.9,49.8,29.99,SW,225,0.0,5.0,40,0.00,,,0.00,0.0,meteohub,2013-05-12 06:12:00,
2013-05-11 23:17:00,75.7,50.4,29.99,SW,225,0.0,5.0,41,0.00,,,0.00,0.0,meteohub,2013-05-12 06:17:00,
2013-05-11 23:22:00,75.6,50.2,29.99,SW,225,0.0,5.0,41,0.00,,,0.00,0.0,meteohub,2013-05-12 06:22:00,
2013-05-11 23:27:00,75.6,50.2,29.99,SW,225,0.0,5.0,41,0.00,,,0.00,0.0,meteohub,2013-05-12 06:27:00,
2013-05-11 23:32:00,75.6,50.2,29.99,SW,225,0.0,6.0,41,0.00,,,0.00,0.0,meteohub,2013-05-12 06:32:00,
2013-05-11 23:37:00,75.4,50.0,29.99,SW,225,1.0,6.0,41,0.00,,,0.00,0.0,meteohub,2013-05-12 06:37:00,
2013-05-11 23:42:00,75.4,50.0,29.99,SW,225,0.0,6.0,41,0.00,,,0.00,0.0,meteohub,2013-05-12 06:42:00,
2013-05-11 23:47:00,75.4,50.0,29.99,SW,225,8.0,8.0,41,0.00,,,0.00,0.0,meteohub,2013-05-12 06:47:00,
2013-05-11 23:52:00,75.4,49.5,29.99,SW,227,2.0,8.0,40,0.00,,,0.00,0.0,meteohub,2013-05-12 06:52:00,
2013-05-11 23:57:00,75.2,49.3,29.99,SW,227,0.0,8.0,40,0.00,,,0.00,0.0,meteohub,2013-05-12 06:57:00,